Year,Month,Day,Hour,Minute,Value (Times are PST for temperature in C)
2017,06,24,00,00,19.60
2017,06,24,00,01,19.70
2017,06,24,00,02,19.70
2017,06,24,00,03,19.70
2017,06,24,00,04,19.80
2017,06,24,00,05,19.80
2017,06,24,00,06,19.80
2017,06,24,00,07,19.90
2017,06,24,00,08,19.90
2017,06,24,00,09,19.90
2017,06,24,00,10,19.90
2017,06,24,00,11,20.00
2017,06,24,00,12,20.00
2017,06,24,00,13,20.10
2017,06,24,00,14,20.10
2017,06,24,00,15,20.10
2017,06,24,00,16,20.10
2017,06,24,00,17,20.10
2017,06,24,00,18,20.10
2017,06,24,00,19,20.10
2017,06,24,00,20,20.10
2017,06,24,00,21,20.10
2017,06,24,00,22,20.20
2017,06,24,00,23,20.20
2017,06,24,00,24,20.20
2017,06,24,00,25,20.20
2017,06,24,00,26,20.20
2017,06,24,00,27,20.20
2017,06,24,00,28,20.10
2017,06,24,00,29,20.10
2017,06,24,00,30,20.10
2017,06,24,00,31,20.00
2017,06,24,00,32,20.00
2017,06,24,00,33,20.00
2017,06,24,00,34,20.00
2017,06,24,00,35,19.90
2017,06,24,00,36,19.90
2017,06,24,00,37,19.90
2017,06,24,00,38,19.80
2017,06,24,00,39,19.80
2017,06,24,00,40,19.80
2017,06,24,00,41,19.70
2017,06,24,00,42,19.70
2017,06,24,00,43,19.70
2017,06,24,00,44,19.60
2017,06,24,00,45,19.60
2017,06,24,00,46,19.60
2017,06,24,00,47,19.60
2017,06,24,00,48,19.50
2017,06,24,00,49,19.40
2017,06,24,00,50,19.40
2017,06,24,00,51,19.40
2017,06,24,00,52,19.40
2017,06,24,00,53,19.40
2017,06,24,00,54,19.40
2017,06,24,00,55,19.30
2017,06,24,00,56,19.30
2017,06,24,00,57,19.30
2017,06,24,00,58,19.30
2017,06,24,00,59,19.30
2017,06,24,01,00,19.30
2017,06,24,01,01,19.30
2017,06,24,01,02,19.30
2017,06,24,01,03,19.30
2017,06,24,01,04,19.30
2017,06,24,01,05,19.20
2017,06,24,01,06,19.20
2017,06,24,01,07,19.20
2017,06,24,01,08,19.10
2017,06,24,01,09,19.10
2017,06,24,01,10,19.10
2017,06,24,01,11,19.10
2017,06,24,01,12,19.10
2017,06,24,01,13,19.00
2017,06,24,01,14,19.00
2017,06,24,01,15,19.00
2017,06,24,01,16,19.00
2017,06,24,01,17,19.00
2017,06,24,01,18,19.00
2017,06,24,01,19,19.00
2017,06,24,01,20,18.90
2017,06,24,01,21,18.90
2017,06,24,01,22,18.90
2017,06,24,01,23,18.90
2017,06,24,01,24,18.90
2017,06,24,01,25,18.90
2017,06,24,01,26,18.90
2017,06,24,01,27,18.90
2017,06,24,01,28,18.90
2017,06,24,01,29,18.90
2017,06,24,01,30,19.00
2017,06,24,01,31,19.00
2017,06,24,01,32,19.00
2017,06,24,01,33,19.00
2017,06,24,01,34,19.00
2017,06,24,01,35,19.00
2017,06,24,01,36,19.00
2017,06,24,01,37,19.00
2017,06,24,01,38,19.00
2017,06,24,01,39,19.00
2017,06,24,01,40,18.90
2017,06,24,01,41,18.90
2017,06,24,01,42,18.90
2017,06,24,01,43,18.90
2017,06,24,01,44,18.90
2017,06,24,01,45,18.90
2017,06,24,01,46,18.80
2017,06,24,01,47,18.80
2017,06,24,01,48,18.80
2017,06,24,01,49,18.80
2017,06,24,01,50,18.70
2017,06,24,01,51,18.70
2017,06,24,01,52,18.70
2017,06,24,01,53,18.70
2017,06,24,01,54,18.60
2017,06,24,01,55,18.60
2017,06,24,01,56,18.60
2017,06,24,01,57,18.50
2017,06,24,01,58,18.50
2017,06,24,01,59,18.40
2017,06,24,02,00,18.40
2017,06,24,02,01,18.40
2017,06,24,02,02,18.30
2017,06,24,02,03,18.30
2017,06,24,02,04,18.30
2017,06,24,02,05,18.20
2017,06,24,02,06,18.20
2017,06,24,02,07,18.20
2017,06,24,02,08,18.20
2017,06,24,02,09,18.20
2017,06,24,02,10,18.20
2017,06,24,02,11,18.20
2017,06,24,02,12,18.10
2017,06,24,02,13,18.10
2017,06,24,02,14,18.10
2017,06,24,02,15,18.10
2017,06,24,02,16,18.10
2017,06,24,02,17,18.10
2017,06,24,02,18,18.00
2017,06,24,02,19,18.00
2017,06,24,02,20,17.90
2017,06,24,02,21,17.90
2017,06,24,02,22,17.80
2017,06,24,02,23,17.80
2017,06,24,02,24,17.80
2017,06,24,02,25,17.80
2017,06,24,02,26,17.70
2017,06,24,02,27,17.70
2017,06,24,02,28,17.70
2017,06,24,02,29,17.70
2017,06,24,02,30,17.70
2017,06,24,02,31,17.70
2017,06,24,02,32,17.70
2017,06,24,02,33,17.70
2017,06,24,02,34,17.60
2017,06,24,02,35,17.60
2017,06,24,02,36,17.50
2017,06,24,02,37,17.50
2017,06,24,02,38,17.50
2017,06,24,02,39,17.50
2017,06,24,02,40,17.60
2017,06,24,02,41,17.60
2017,06,24,02,42,17.50
2017,06,24,02,43,17.50
2017,06,24,02,44,17.50
2017,06,24,02,45,17.50
2017,06,24,02,46,17.40
2017,06,24,02,47,17.50
2017,06,24,02,48,17.50
2017,06,24,02,49,17.60
2017,06,24,02,50,17.60
2017,06,24,02,51,17.60
2017,06,24,02,52,17.60
2017,06,24,02,53,17.70
2017,06,24,02,54,17.70
2017,06,24,02,55,17.80
2017,06,24,02,56,17.80
2017,06,24,02,57,17.90
2017,06,24,02,58,17.90
2017,06,24,02,59,17.90
2017,06,24,03,00,17.90
2017,06,24,03,01,17.90
2017,06,24,03,02,18.00
2017,06,24,03,03,18.00
2017,06,24,03,04,18.00
2017,06,24,03,05,18.00
2017,06,24,03,06,17.90
2017,06,24,03,07,17.90
2017,06,24,03,08,17.90
2017,06,24,03,09,17.80
2017,06,24,03,10,17.80
2017,06,24,03,11,17.80
2017,06,24,03,12,17.80
2017,06,24,03,13,17.80
2017,06,24,03,14,17.80
2017,06,24,03,15,17.80
2017,06,24,03,16,17.80
2017,06,24,03,17,17.80
2017,06,24,03,18,17.80
2017,06,24,03,19,17.80
2017,06,24,03,20,17.80
2017,06,24,03,21,17.70
2017,06,24,03,22,17.70
2017,06,24,03,23,17.70
2017,06,24,03,24,17.70
2017,06,24,03,25,17.70
2017,06,24,03,26,17.70
2017,06,24,03,27,17.70
2017,06,24,03,28,17.70
2017,06,24,03,29,17.60
2017,06,24,03,30,17.60
2017,06,24,03,31,17.60
2017,06,24,03,32,17.50
2017,06,24,03,33,17.40
2017,06,24,03,34,17.40
2017,06,24,03,35,17.30
2017,06,24,03,36,17.30
2017,06,24,03,37,17.20
2017,06,24,03,38,17.10
2017,06,24,03,39,17.10
2017,06,24,03,40,17.00
2017,06,24,03,41,16.90
2017,06,24,03,42,16.90
2017,06,24,03,43,16.80
2017,06,24,03,44,16.70
2017,06,24,03,45,16.70
2017,06,24,03,46,16.60
2017,06,24,03,47,16.50
2017,06,24,03,48,16.40
2017,06,24,03,49,16.40
2017,06,24,03,50,16.30
2017,06,24,03,51,16.30
2017,06,24,03,52,16.20
2017,06,24,03,53,16.10
2017,06,24,03,54,16.10
2017,06,24,03,55,16.00
2017,06,24,03,56,15.90
2017,06,24,03,57,15.90
2017,06,24,03,58,15.80
2017,06,24,03,59,15.70
2017,06,24,04,00,15.70
2017,06,24,04,01,15.60
2017,06,24,04,02,15.60
2017,06,24,04,03,15.50
2017,06,24,04,04,15.50
2017,06,24,04,05,15.40
2017,06,24,04,06,15.30
2017,06,24,04,07,15.30
2017,06,24,04,08,15.20
2017,06,24,04,09,15.20
2017,06,24,04,10,15.10
2017,06,24,04,11,15.00
2017,06,24,04,12,15.00
2017,06,24,04,13,14.90
2017,06,24,04,14,14.90
2017,06,24,04,15,14.80
2017,06,24,04,16,14.80
2017,06,24,04,17,14.80
2017,06,24,04,18,14.70
2017,06,24,04,19,14.70
2017,06,24,04,20,14.60
2017,06,24,04,21,14.60
2017,06,24,04,22,14.60
2017,06,24,04,23,14.50
2017,06,24,04,24,14.50
2017,06,24,04,25,14.40
2017,06,24,04,26,14.40
2017,06,24,04,27,14.40
2017,06,24,04,28,14.30
2017,06,24,04,29,14.30
2017,06,24,04,30,14.30
2017,06,24,04,31,14.20
2017,06,24,04,32,14.20
2017,06,24,04,33,14.20
2017,06,24,04,34,14.10
2017,06,24,04,35,14.10
2017,06,24,04,36,14.10
2017,06,24,04,37,14.10
2017,06,24,04,38,14.10
2017,06,24,04,39,14.10
2017,06,24,04,40,14.00
2017,06,24,04,41,14.00
2017,06,24,04,42,13.90
2017,06,24,04,43,13.90
2017,06,24,04,44,13.90
2017,06,24,04,45,13.90
2017,06,24,04,46,13.90
2017,06,24,04,47,14.00
2017,06,24,04,48,14.00
2017,06,24,04,49,14.10
2017,06,24,04,50,14.10
2017,06,24,04,51,14.10
2017,06,24,04,52,14.10
2017,06,24,04,53,14.10
2017,06,24,04,54,14.10
2017,06,24,04,55,14.10
2017,06,24,04,56,14.10
2017,06,24,04,57,14.10
2017,06,24,04,58,14.10
2017,06,24,04,59,14.10
2017,06,24,05,00,14.00
2017,06,24,05,01,14.00
2017,06,24,05,02,14.00
2017,06,24,05,03,13.90
2017,06,24,05,04,13.90
2017,06,24,05,05,13.90
2017,06,24,05,06,13.90
2017,06,24,05,07,13.80
2017,06,24,05,08,13.80
2017,06,24,05,09,13.80
2017,06,24,05,10,13.80
2017,06,24,05,11,13.70
2017,06,24,05,12,13.70
2017,06,24,05,13,13.70
2017,06,24,05,14,13.60
2017,06,24,05,15,13.60
2017,06,24,05,16,13.60
2017,06,24,05,17,13.60
2017,06,24,05,18,13.50
2017,06,24,05,19,13.50
2017,06,24,05,20,13.50
2017,06,24,05,21,13.50
2017,06,24,05,22,13.50
2017,06,24,05,23,13.40
2017,06,24,05,24,13.40
2017,06,24,05,25,13.40
2017,06,24,05,26,13.40
2017,06,24,05,27,13.40
2017,06,24,05,28,13.40
2017,06,24,05,29,13.40
2017,06,24,05,30,13.40
2017,06,24,05,31,13.40
2017,06,24,05,32,13.40
2017,06,24,05,33,13.40
2017,06,24,05,34,13.40
2017,06,24,05,35,13.40
2017,06,24,05,36,13.30
2017,06,24,05,37,13.30
2017,06,24,05,38,13.30
2017,06,24,05,39,13.30
2017,06,24,05,40,13.30
2017,06,24,05,41,13.30
2017,06,24,05,42,13.30
2017,06,24,05,43,13.30
2017,06,24,05,44,13.30
2017,06,24,05,45,13.20
2017,06,24,05,46,13.20
2017,06,24,05,47,13.20
2017,06,24,05,48,13.20
2017,06,24,05,49,13.20
2017,06,24,05,50,13.10
2017,06,24,05,51,13.10
2017,06,24,05,52,13.10
2017,06,24,05,53,13.10
2017,06,24,05,54,13.00
2017,06,24,05,55,13.00
2017,06,24,05,56,13.00
2017,06,24,05,57,13.00
2017,06,24,05,58,13.00
2017,06,24,05,59,13.00
2017,06,24,06,00,13.00
2017,06,24,06,01,13.00
2017,06,24,06,02,13.00
2017,06,24,06,03,13.00
2017,06,24,06,04,13.00
2017,06,24,06,05,13.00
2017,06,24,06,06,13.00
2017,06,24,06,07,13.00
2017,06,24,06,08,13.00
2017,06,24,06,09,13.00
2017,06,24,06,10,13.00
2017,06,24,06,11,13.00
2017,06,24,06,12,13.00
2017,06,24,06,13,13.00
2017,06,24,06,14,13.00
2017,06,24,06,15,13.00
2017,06,24,06,16,13.10
2017,06,24,06,17,13.10
2017,06,24,06,18,13.10
2017,06,24,06,19,13.10
2017,06,24,06,20,13.20
2017,06,24,06,21,13.20
2017,06,24,06,22,13.20
2017,06,24,06,23,13.30
2017,06,24,06,24,13.30
2017,06,24,06,25,13.40
2017,06,24,06,26,13.40
2017,06,24,06,27,13.50
2017,06,24,06,28,13.50
2017,06,24,06,29,13.60
2017,06,24,06,30,13.60
2017,06,24,06,31,13.70
2017,06,24,06,32,13.70
2017,06,24,06,33,13.80
2017,06,24,06,34,13.80
2017,06,24,06,35,13.90
2017,06,24,06,36,13.90
2017,06,24,06,37,13.90
2017,06,24,06,38,14.00
2017,06,24,06,39,14.00
2017,06,24,06,40,14.10
2017,06,24,06,41,14.10
2017,06,24,06,42,14.10
2017,06,24,06,43,14.20
2017,06,24,06,44,14.20
2017,06,24,06,45,14.20
2017,06,24,06,46,14.30
2017,06,24,06,47,14.30
2017,06,24,06,48,14.40
2017,06,24,06,49,14.40
2017,06,24,06,50,14.50
2017,06,24,06,51,14.60
2017,06,24,06,52,14.70
2017,06,24,06,53,14.80
2017,06,24,06,54,15.00
2017,06,24,06,55,15.10
2017,06,24,06,56,15.20
2017,06,24,06,57,15.30
2017,06,24,06,58,15.40
2017,06,24,06,59,15.60
2017,06,24,07,00,15.70
2017,06,24,07,01,15.80
2017,06,24,07,02,15.90
2017,06,24,07,03,16.00
2017,06,24,07,04,16.10
2017,06,24,07,05,16.20
2017,06,24,07,06,16.30
2017,06,24,07,07,16.30
2017,06,24,07,08,16.40
2017,06,24,07,09,16.50
2017,06,24,07,10,16.60
2017,06,24,07,11,16.70
2017,06,24,07,12,16.70
2017,06,24,07,13,16.80
2017,06,24,07,14,16.90
2017,06,24,07,15,16.90
2017,06,24,07,16,17.00
2017,06,24,07,17,17.00
2017,06,24,07,18,17.10
2017,06,24,07,19,17.10
2017,06,24,07,20,17.10
2017,06,24,07,21,17.20
2017,06,24,07,22,17.20
2017,06,24,07,23,17.20
2017,06,24,07,24,17.20
2017,06,24,07,25,17.30
2017,06,24,07,26,17.30
2017,06,24,07,27,17.30
2017,06,24,07,28,17.30
2017,06,24,07,29,17.30
2017,06,24,07,30,17.30
2017,06,24,07,31,17.30
2017,06,24,07,32,17.40
2017,06,24,07,33,17.40
2017,06,24,07,34,17.40
2017,06,24,07,35,17.40
2017,06,24,07,36,17.50
2017,06,24,07,37,17.50
2017,06,24,07,38,17.50
2017,06,24,07,39,17.50
2017,06,24,07,40,17.60
2017,06,24,07,41,17.60
2017,06,24,07,42,17.60
2017,06,24,07,43,17.60
2017,06,24,07,44,17.70
2017,06,24,07,45,17.70
2017,06,24,07,46,17.70
2017,06,24,07,47,17.80
2017,06,24,07,48,17.80
2017,06,24,07,49,17.90
2017,06,24,07,50,17.90
2017,06,24,07,51,18.00
2017,06,24,07,52,18.00
2017,06,24,07,53,18.10
2017,06,24,07,54,18.10
2017,06,24,07,55,18.20
2017,06,24,07,56,18.20
2017,06,24,07,57,18.30
2017,06,24,07,58,18.40
2017,06,24,07,59,18.40
2017,06,24,08,00,18.40
2017,06,24,08,01,18.50
2017,06,24,08,02,18.50
2017,06,24,08,03,18.60
2017,06,24,08,04,18.70
2017,06,24,08,05,18.70
2017,06,24,08,06,18.80
2017,06,24,08,07,18.80
2017,06,24,08,08,18.90
2017,06,24,08,09,18.90
2017,06,24,08,10,19.00
2017,06,24,08,11,19.00
2017,06,24,08,12,18.90
2017,06,24,08,13,18.90
2017,06,24,08,14,18.90
2017,06,24,08,15,18.90
2017,06,24,08,16,19.00
2017,06,24,08,17,19.00
2017,06,24,08,18,19.00
2017,06,24,08,19,19.00
2017,06,24,08,20,19.00
2017,06,24,08,21,19.00
2017,06,24,08,22,19.10
2017,06,24,08,23,19.10
2017,06,24,08,24,19.10
2017,06,24,08,25,19.10
2017,06,24,08,26,19.20
2017,06,24,08,27,19.20
2017,06,24,08,28,19.20
2017,06,24,08,29,19.30
2017,06,24,08,30,19.30
2017,06,24,08,31,19.30
2017,06,24,08,32,19.30
2017,06,24,08,33,19.30
2017,06,24,08,34,19.30
2017,06,24,08,35,19.30
2017,06,24,08,36,19.30
2017,06,24,08,37,19.30
2017,06,24,08,38,19.30
2017,06,24,08,39,19.30
2017,06,24,08,40,19.30
2017,06,24,08,41,19.40
2017,06,24,08,42,19.40
2017,06,24,08,43,19.40
2017,06,24,08,44,19.50
2017,06,24,08,45,19.60
2017,06,24,08,46,19.70
2017,06,24,08,47,19.70
2017,06,24,08,48,19.80
2017,06,24,08,49,19.90
2017,06,24,08,50,19.90
2017,06,24,08,51,19.90
2017,06,24,08,52,19.90
2017,06,24,08,53,20.00
2017,06,24,08,54,20.00
2017,06,24,08,55,20.00
2017,06,24,08,56,20.10
2017,06,24,08,57,20.10
2017,06,24,08,58,20.10
2017,06,24,08,59,20.10
2017,06,24,09,00,20.20
2017,06,24,09,01,20.20
2017,06,24,09,02,20.20
2017,06,24,09,03,20.20
2017,06,24,09,04,20.20
2017,06,24,09,05,20.20
2017,06,24,09,06,20.20
2017,06,24,09,07,20.20
2017,06,24,09,08,20.20
2017,06,24,09,09,20.20
2017,06,24,09,10,20.20
2017,06,24,09,11,20.20
2017,06,24,09,12,20.30
2017,06,24,09,13,20.40
2017,06,24,09,14,20.40
2017,06,24,09,15,20.40
2017,06,24,09,16,20.50
2017,06,24,09,17,20.60
2017,06,24,09,18,20.60
2017,06,24,09,19,20.70
2017,06,24,09,20,20.80
2017,06,24,09,21,20.80
2017,06,24,09,22,20.90
2017,06,24,09,23,20.90
2017,06,24,09,24,20.90
2017,06,24,09,25,21.00
2017,06,24,09,26,21.00
2017,06,24,09,27,21.10
2017,06,24,09,28,21.10
2017,06,24,09,29,21.10
2017,06,24,09,30,21.10
2017,06,24,09,31,21.20
2017,06,24,09,32,21.20
2017,06,24,09,33,21.20
2017,06,24,09,34,21.30
2017,06,24,09,35,21.30
2017,06,24,09,36,21.40
2017,06,24,09,37,21.50
2017,06,24,09,38,21.60
2017,06,24,09,39,21.70
2017,06,24,09,40,21.80
2017,06,24,09,41,21.80
2017,06,24,09,42,21.80
2017,06,24,09,43,21.80
2017,06,24,09,44,21.80
2017,06,24,09,45,21.80
2017,06,24,09,46,21.80
2017,06,24,09,47,21.70
2017,06,24,09,48,21.70
2017,06,24,09,49,21.70
2017,06,24,09,50,21.70
2017,06,24,09,51,21.70
2017,06,24,09,52,21.70
2017,06,24,09,53,21.70
2017,06,24,09,54,21.70
2017,06,24,09,55,21.70
2017,06,24,09,56,21.70
2017,06,24,09,57,21.80
2017,06,24,09,58,21.70
2017,06,24,09,59,21.70
2017,06,24,10,00,21.70
2017,06,24,10,01,21.60
2017,06,24,10,02,21.60
2017,06,24,10,03,21.60
2017,06,24,10,04,21.70
2017,06,24,10,05,21.70
2017,06,24,10,06,21.70
2017,06,24,10,07,21.80
2017,06,24,10,08,21.80
2017,06,24,10,09,21.80
2017,06,24,10,10,21.80
2017,06,24,10,11,21.80
2017,06,24,10,12,21.80
2017,06,24,10,13,21.80
2017,06,24,10,14,21.80
2017,06,24,10,15,21.80
2017,06,24,10,16,21.80
2017,06,24,10,17,21.80
2017,06,24,10,18,21.80
2017,06,24,10,19,21.80
2017,06,24,10,20,21.80
2017,06,24,10,21,21.70
2017,06,24,10,22,21.70
2017,06,24,10,23,21.70
2017,06,24,10,24,21.60
2017,06,24,10,25,21.60
2017,06,24,10,26,21.60
2017,06,24,10,27,21.60
2017,06,24,10,28,21.60
2017,06,24,10,29,21.60
2017,06,24,10,30,21.70
2017,06,24,10,31,21.70
2017,06,24,10,32,21.70
2017,06,24,10,33,21.70
2017,06,24,10,34,21.70
2017,06,24,10,35,21.70
2017,06,24,10,36,21.70
2017,06,24,10,37,21.70
2017,06,24,10,38,21.70
2017,06,24,10,39,21.70
2017,06,24,10,40,21.80
2017,06,24,10,41,21.80
2017,06,24,10,42,21.90
2017,06,24,10,43,21.90
2017,06,24,10,44,21.90
2017,06,24,10,45,21.90
2017,06,24,10,46,21.90
2017,06,24,10,47,21.90
2017,06,24,10,48,21.90
2017,06,24,10,49,21.90
2017,06,24,10,50,21.80
2017,06,24,10,51,21.80
2017,06,24,10,52,21.80
2017,06,24,10,53,21.80
2017,06,24,10,54,21.90
2017,06,24,10,55,21.90
2017,06,24,10,56,22.00
2017,06,24,10,57,22.00
2017,06,24,10,58,22.10
2017,06,24,10,59,22.10
2017,06,24,11,00,22.10
2017,06,24,11,01,22.10
2017,06,24,11,02,22.10
2017,06,24,11,03,22.10
2017,06,24,11,04,22.10
2017,06,24,11,05,22.10
2017,06,24,11,06,22.20
2017,06,24,11,07,22.20
2017,06,24,11,08,22.30
2017,06,24,11,09,22.40
2017,06,24,11,10,22.40
2017,06,24,11,11,22.50
2017,06,24,11,12,22.50
2017,06,24,11,13,22.60
2017,06,24,11,14,22.60
2017,06,24,11,15,22.60
2017,06,24,11,16,22.70
2017,06,24,11,17,22.80
2017,06,24,11,18,22.80
2017,06,24,11,19,22.80
2017,06,24,11,20,22.80
2017,06,24,11,21,22.80
2017,06,24,11,22,22.80
2017,06,24,11,23,22.80
2017,06,24,11,24,22.90
2017,06,24,11,25,22.90
2017,06,24,11,26,22.90
2017,06,24,11,27,22.90
2017,06,24,11,28,22.90
2017,06,24,11,29,22.90
2017,06,24,11,30,22.90
2017,06,24,11,31,22.80
2017,06,24,11,32,22.80
2017,06,24,11,33,22.70
2017,06,24,11,34,22.70
2017,06,24,11,35,22.70
2017,06,24,11,36,22.70
2017,06,24,11,37,22.70
2017,06,24,11,38,22.70
2017,06,24,11,39,22.80
2017,06,24,11,40,22.80
2017,06,24,11,41,22.90
2017,06,24,11,42,23.00
2017,06,24,11,43,23.00
2017,06,24,11,44,23.10
2017,06,24,11,45,23.10
2017,06,24,11,46,23.10
2017,06,24,11,47,23.10
2017,06,24,11,48,23.20
2017,06,24,11,49,23.30
2017,06,24,11,50,23.30
2017,06,24,11,51,23.40
2017,06,24,11,52,23.40
2017,06,24,11,53,23.40
2017,06,24,11,54,23.40
2017,06,24,11,55,23.40
2017,06,24,11,56,23.50
2017,06,24,11,57,23.50
2017,06,24,11,58,23.60
2017,06,24,11,59,23.70
2017,06,24,12,00,23.70
2017,06,24,12,01,23.70
2017,06,24,12,02,23.80
2017,06,24,12,03,23.80
2017,06,24,12,04,23.80
2017,06,24,12,05,23.80
2017,06,24,12,06,23.80
2017,06,24,12,07,23.80
2017,06,24,12,08,23.80
2017,06,24,12,09,23.80
2017,06,24,12,10,23.90
2017,06,24,12,11,23.90
2017,06,24,12,12,24.00
2017,06,24,12,13,24.10
2017,06,24,12,14,24.30
2017,06,24,12,15,24.30
2017,06,24,12,16,24.30
2017,06,24,12,17,24.40
2017,06,24,12,18,24.30
2017,06,24,12,19,24.30
2017,06,24,12,20,24.30
2017,06,24,12,21,24.40
2017,06,24,12,22,24.40
2017,06,24,12,23,24.40
2017,06,24,12,24,24.40
2017,06,24,12,25,24.40
2017,06,24,12,26,24.50
2017,06,24,12,27,24.60
2017,06,24,12,28,24.70
2017,06,24,12,29,24.70
2017,06,24,12,30,24.80
2017,06,24,12,31,24.90
2017,06,24,12,32,25.00
2017,06,24,12,33,25.00
2017,06,24,12,34,25.10
2017,06,24,12,35,25.10
2017,06,24,12,36,25.10
2017,06,24,12,37,25.10
2017,06,24,12,38,25.10
2017,06,24,12,39,25.00
2017,06,24,12,40,25.00
2017,06,24,12,41,24.90
2017,06,24,12,42,24.90
2017,06,24,12,43,25.00
2017,06,24,12,44,25.00
2017,06,24,12,45,25.10
2017,06,24,12,46,25.10
2017,06,24,12,47,25.20
2017,06,24,12,48,25.40
2017,06,24,12,49,25.50
2017,06,24,12,50,25.60
2017,06,24,12,51,25.60
2017,06,24,12,52,25.70
2017,06,24,12,53,25.70
2017,06,24,12,54,25.70
2017,06,24,12,55,25.70
2017,06,24,12,56,25.70
2017,06,24,12,57,25.70
2017,06,24,12,58,25.70
2017,06,24,12,59,25.70
2017,06,24,13,00,25.70
2017,06,24,13,01,25.70
2017,06,24,13,02,25.60
2017,06,24,13,03,25.60
2017,06,24,13,04,25.60
2017,06,24,13,05,25.60
2017,06,24,13,06,25.60
2017,06,24,13,07,25.70
2017,06,24,13,08,25.80
2017,06,24,13,09,25.90
2017,06,24,13,10,25.90
2017,06,24,13,11,25.90
2017,06,24,13,12,26.00
2017,06,24,13,13,26.00
2017,06,24,13,14,26.10
2017,06,24,13,15,26.10
2017,06,24,13,16,26.20
2017,06,24,13,17,26.30
2017,06,24,13,18,26.40
2017,06,24,13,19,26.40
2017,06,24,13,20,26.50
2017,06,24,13,21,26.50
2017,06,24,13,22,26.60
2017,06,24,13,23,26.60
2017,06,24,13,24,26.60
2017,06,24,13,25,26.60
2017,06,24,13,26,26.60
2017,06,24,13,27,26.60
2017,06,24,13,28,26.60
2017,06,24,13,29,26.70
2017,06,24,13,30,26.80
2017,06,24,13,31,26.90
2017,06,24,13,32,27.00
2017,06,24,13,33,27.00
2017,06,24,13,34,27.20
2017,06,24,13,35,27.30
2017,06,24,13,36,27.40
2017,06,24,13,37,27.50
2017,06,24,13,38,27.50
2017,06,24,13,39,27.50
2017,06,24,13,40,27.50
2017,06,24,13,41,27.50
2017,06,24,13,42,27.50
2017,06,24,13,43,27.40
2017,06,24,13,44,27.30
2017,06,24,13,45,27.30
2017,06,24,13,46,27.20
2017,06,24,13,47,27.10
2017,06,24,13,48,27.20
2017,06,24,13,49,27.20
2017,06,24,13,50,27.20
2017,06,24,13,51,27.20
2017,06,24,13,52,27.30
2017,06,24,13,53,27.30
2017,06,24,13,54,27.40
2017,06,24,13,55,27.40
2017,06,24,13,56,27.40
2017,06,24,13,57,27.40
2017,06,24,13,58,27.30
2017,06,24,13,59,27.20
2017,06,24,14,00,27.10
2017,06,24,14,01,27.10
2017,06,24,14,02,27.10
2017,06,24,14,03,27.00
2017,06,24,14,04,27.00
2017,06,24,14,05,27.00
2017,06,24,14,06,27.10
2017,06,24,14,07,27.10
2017,06,24,14,08,27.00
2017,06,24,14,09,27.00
2017,06,24,14,10,27.00
2017,06,24,14,11,27.00
2017,06,24,14,12,27.00
2017,06,24,14,13,27.10
2017,06,24,14,14,27.20
2017,06,24,14,15,27.20
2017,06,24,14,16,27.30
2017,06,24,14,17,27.30
2017,06,24,14,18,27.30
2017,06,24,14,19,27.30
2017,06,24,14,20,27.30
2017,06,24,14,21,27.20
2017,06,24,14,22,27.20
2017,06,24,14,23,27.20
2017,06,24,14,24,27.20
2017,06,24,14,25,27.10
2017,06,24,14,26,27.10
2017,06,24,14,27,27.10
2017,06,24,14,28,27.10
2017,06,24,14,29,27.00
2017,06,24,14,30,26.90
2017,06,24,14,31,26.90
2017,06,24,14,32,26.80
2017,06,24,14,33,26.80
2017,06,24,14,34,26.80
2017,06,24,14,35,26.80
2017,06,24,14,36,26.80
2017,06,24,14,37,26.70
2017,06,24,14,38,26.80
2017,06,24,14,39,26.80
2017,06,24,14,40,26.80
2017,06,24,14,41,26.90
2017,06,24,14,42,26.90
2017,06,24,14,43,27.00
2017,06,24,14,44,27.10
2017,06,24,14,45,27.20
2017,06,24,14,46,27.20
2017,06,24,14,47,27.20
2017,06,24,14,48,27.30
2017,06,24,14,49,27.20
2017,06,24,14,50,27.20
2017,06,24,14,51,27.10
2017,06,24,14,52,27.20
2017,06,24,14,53,27.20
2017,06,24,14,54,27.10
2017,06,24,14,55,27.00
2017,06,24,14,56,26.90
2017,06,24,14,57,26.90
2017,06,24,14,58,26.90
2017,06,24,14,59,26.90
2017,06,24,15,00,27.00
2017,06,24,15,01,27.00
2017,06,24,15,02,27.10
2017,06,24,15,03,27.10
2017,06,24,15,04,27.20
2017,06,24,15,05,27.20
2017,06,24,15,06,27.30
2017,06,24,15,07,27.30
2017,06,24,15,08,27.40
2017,06,24,15,09,27.40
2017,06,24,15,10,27.50
2017,06,24,15,11,27.60
2017,06,24,15,12,27.60
2017,06,24,15,13,27.70
2017,06,24,15,14,27.70
2017,06,24,15,15,27.70
2017,06,24,15,16,27.70
2017,06,24,15,17,27.70
2017,06,24,15,18,27.60
2017,06,24,15,19,27.60
2017,06,24,15,20,27.50
2017,06,24,15,21,27.40
2017,06,24,15,22,27.40
2017,06,24,15,23,27.30
2017,06,24,15,24,27.30
2017,06,24,15,25,27.30
2017,06,24,15,26,27.30
2017,06,24,15,27,27.20
2017,06,24,15,28,27.20
2017,06,24,15,29,27.10
2017,06,24,15,30,27.00
2017,06,24,15,31,26.90
2017,06,24,15,32,26.80
2017,06,24,15,33,26.70
2017,06,24,15,34,26.60
2017,06,24,15,35,26.60
2017,06,24,15,36,26.60
2017,06,24,15,37,26.60
2017,06,24,15,38,26.60
2017,06,24,15,39,26.60
2017,06,24,15,40,26.60
2017,06,24,15,41,26.50
2017,06,24,15,42,26.50
2017,06,24,15,43,26.50
2017,06,24,15,44,26.50
2017,06,24,15,45,26.50
2017,06,24,15,46,26.60
2017,06,24,15,47,26.60
2017,06,24,15,48,26.70
2017,06,24,15,49,26.80
2017,06,24,15,50,26.80
2017,06,24,15,51,26.90
2017,06,24,15,52,26.90
2017,06,24,15,53,27.00
2017,06,24,15,54,27.10
2017,06,24,15,55,27.10
2017,06,24,15,56,27.10
2017,06,24,15,57,27.20
2017,06,24,15,58,27.20
2017,06,24,15,59,27.20
2017,06,24,16,00,27.20
2017,06,24,16,01,27.30
2017,06,24,16,02,27.20
2017,06,24,16,03,27.20
2017,06,24,16,04,27.20
2017,06,24,16,05,27.20
2017,06,24,16,06,27.30
2017,06,24,16,07,27.30
2017,06,24,16,08,27.30
2017,06,24,16,09,27.40
2017,06,24,16,10,27.40
2017,06,24,16,11,27.50
2017,06,24,16,12,27.60
2017,06,24,16,13,27.70
2017,06,24,16,14,27.80
2017,06,24,16,15,27.90
2017,06,24,16,16,28.00
2017,06,24,16,17,28.00
2017,06,24,16,18,28.10
2017,06,24,16,19,28.10
2017,06,24,16,20,28.20
2017,06,24,16,21,28.20
2017,06,24,16,22,28.30
2017,06,24,16,23,28.30
2017,06,24,16,24,28.30
2017,06,24,16,25,28.30
2017,06,24,16,26,28.30
2017,06,24,16,27,28.30
2017,06,24,16,28,28.30
2017,06,24,16,29,28.30
2017,06,24,16,30,28.40
2017,06,24,16,31,28.40
2017,06,24,16,32,28.50
2017,06,24,16,33,28.60
2017,06,24,16,34,28.70
2017,06,24,16,35,28.80
2017,06,24,16,36,28.90
2017,06,24,16,37,28.90
2017,06,24,16,38,29.00
2017,06,24,16,39,29.10
2017,06,24,16,40,29.10
2017,06,24,16,41,29.20
2017,06,24,16,42,29.20
2017,06,24,16,43,29.10
2017,06,24,16,44,29.10
2017,06,24,16,45,29.10
2017,06,24,16,46,29.10
2017,06,24,16,47,29.20
2017,06,24,16,48,29.30
2017,06,24,16,49,29.30
2017,06,24,16,50,29.30
2017,06,24,16,51,29.40
2017,06,24,16,52,29.40
2017,06,24,16,53,29.50
2017,06,24,16,54,29.50
2017,06,24,16,55,29.50
2017,06,24,16,56,29.50
2017,06,24,16,57,29.50
2017,06,24,16,58,29.60
2017,06,24,16,59,29.60
2017,06,24,17,00,29.60
2017,06,24,17,01,29.60
2017,06,24,17,02,29.60
2017,06,24,17,03,29.50
2017,06,24,17,04,29.50
2017,06,24,17,05,29.40
2017,06,24,17,06,29.40
2017,06,24,17,07,29.40
2017,06,24,17,08,29.40
2017,06,24,17,09,29.30
2017,06,24,17,10,29.30
2017,06,24,17,11,29.30
2017,06,24,17,12,29.20
2017,06,24,17,13,29.20
2017,06,24,17,14,29.20
2017,06,24,17,15,29.20
2017,06,24,17,16,29.20
2017,06,24,17,17,29.20
2017,06,24,17,18,29.20
2017,06,24,17,19,29.20